La Grange, GA

7:24 AM EST on November 24, 2017 (GMT -0500)
Lagrange-Callaway

Weather History for KLGC - October, 2012

Change the Weather History Date:

Sunday, October 28, 2012

  Actual Average Record
Temperature  
Mean Temperature 50 °F -  
Max Temperature 53 °F 73 °F 86 °F (2016)
Min Temperature 46 °F 44 °F 26 °F (1957)
Degree Days  
Heating Degree Days 16    
Moisture  
Dew Point 45 °F    
Average Humidity 79    
Maximum Humidity 94    
Minimum Humidity 58    
Precipitation  
Precipitation 0.00 in - - ()
Sea Level Pressure  
Sea Level Pressure 29.85 in    
Wind  
Wind Speed 9 mph (NNW)    
Max Wind Speed 17 mph    
Max Gust Speed 29 mph    
Visibility 10 miles    
Events      
Averages and records for this station are not official NWS values.
T = Trace of Precipitation, MM = Missing Value Source: NWS Daily Summary

Daily Weather History Graph

Daily Weather History Graph

Search for Another Location

Airport or City:

Trip Planner

Search our weather history database for the weather conditions in past years. The results will help you decide how hot, cold, wet, or windy it might be!

Date:

Astronomy

Oct. 28, 2012 Rise Set
Actual Time 7:55 AM EDT 6:52 PM EDT
Civil Twilight 7:29 AM EDT 7:17 PM EDT
Nautical Twilight 7:00 AM EDT 7:46 PM EDT
Astronomical Twilight 6:32 AM EDT 8:15 PM EDT
Moon 6:09 PM EDT (10/28) 6:49 AM EDT (10/28)
Length of Visible Light 11h 47m
Length of Day
10h 56m
Waxing Gibbous, 99% of the Moon is Illuminated
Oct 28
Waxing Gibbous
Oct 29
Full
Nov 6
Last Quarter
Nov 13
New
Nov 20
First Quarter

Hourly Weather History & Observations

Time (EDT) Temp. Windchill Dew Point Humidity Pressure Visibility Wind Dir Wind Speed Gust Speed Precip Events Conditions
12:15 AM 53.6 °F - 50.0 °F 88% 29.85 in 10.0 mi North 10.4 mph - N/A   Overcast
12:35 AM 51.8 °F - 50.0 °F 94% 29.84 in 10.0 mi NNW 8.1 mph 16.1 mph N/A   Overcast
12:55 AM 51.8 °F - 50.0 °F 94% 29.84 in 10.0 mi NNW 6.9 mph - N/A   Overcast
1:15 AM 51.8 °F - 50.0 °F 94% 29.83 in 10.0 mi NNW 5.8 mph - N/A   Overcast
1:35 AM 51.8 °F - 50.0 °F 94% 29.83 in 10.0 mi North 4.6 mph - N/A   Overcast
1:55 AM 51.8 °F - 50.0 °F 94% 29.83 in 10.0 mi NNW 5.8 mph - N/A   Overcast
2:15 AM 51.8 °F - 48.2 °F 88% 29.82 in 10.0 mi NNW 8.1 mph - N/A   Overcast
2:35 AM 51.8 °F - 48.2 °F 88% 29.82 in 10.0 mi North 6.9 mph - N/A   Overcast
2:55 AM 51.8 °F - 50.0 °F 94% 29.82 in 10.0 mi NNW 8.1 mph - N/A   Overcast
3:15 AM 51.8 °F - 48.2 °F 88% 29.81 in 10.0 mi NNW 8.1 mph - N/A   Overcast
3:35 AM 51.8 °F - 48.2 °F 88% 29.81 in 10.0 mi NW 6.9 mph - N/A   Overcast
3:55 AM 51.8 °F - 50.0 °F 94% 29.81 in 10.0 mi NNW 8.1 mph - N/A   Overcast
4:15 AM 51.8 °F - 48.2 °F 88% 29.81 in 10.0 mi NNW 6.9 mph - N/A   Overcast
4:35 AM 51.8 °F - 48.2 °F 88% 29.81 in 10.0 mi NNW 6.9 mph - N/A   Overcast
4:55 AM 51.8 °F - 48.2 °F 88% 29.82 in 10.0 mi NNW 9.2 mph - N/A   Overcast
5:15 AM 51.8 °F - 48.2 °F 88% 29.81 in 10.0 mi NNW 6.9 mph - N/A   Overcast
5:35 AM 51.8 °F - 48.2 °F 88% 29.81 in 10.0 mi NNW 4.6 mph - N/A   Overcast
5:55 AM 51.8 °F - 48.2 °F 88% 29.81 in 10.0 mi NW 9.2 mph - N/A   Overcast
6:15 AM 51.8 °F - 48.2 °F 88% 29.82 in 10.0 mi NW 9.2 mph - N/A   Overcast
6:35 AM 51.8 °F - 48.2 °F 88% 29.83 in 10.0 mi NW 6.9 mph - N/A   Overcast
6:55 AM 51.8 °F - 48.2 °F 88% 29.83 in 10.0 mi NW 11.5 mph - N/A   Overcast
7:15 AM 51.8 °F - 48.2 °F 88% 29.83 in 10.0 mi NNW 6.9 mph - N/A   Overcast
7:35 AM 51.8 °F - 48.2 °F 88% 29.83 in 10.0 mi NW 9.2 mph - N/A   Overcast
7:55 AM 51.8 °F - 48.2 °F 88% 29.83 in 10.0 mi North 8.1 mph - N/A   Overcast
8:15 AM 51.8 °F - 48.2 °F 88% 29.84 in 10.0 mi NW 10.4 mph - N/A   Overcast
8:35 AM 51.8 °F - 48.2 °F 88% 29.85 in 10.0 mi NNW 11.5 mph - N/A   Overcast
8:55 AM 51.8 °F - 48.2 °F 88% 29.85 in 10.0 mi NW 13.8 mph 17.3 mph N/A   Overcast
9:15 AM 51.8 °F - 48.2 °F 88% 29.86 in 10.0 mi NW 13.8 mph 18.4 mph N/A   Overcast
9:35 AM 51.8 °F - 48.2 °F 88% 29.86 in 10.0 mi NNW 11.5 mph - N/A   Overcast
9:55 AM 51.8 °F - 48.2 °F 88% 29.86 in 10.0 mi NNW 6.9 mph 17.3 mph N/A   Overcast
10:15 AM 51.8 °F - 48.2 °F 88% 29.86 in 10.0 mi NW 8.1 mph - N/A   Overcast
10:35 AM 53.6 °F - 48.2 °F 82% 29.86 in 10.0 mi NW 9.2 mph 16.1 mph N/A   Overcast
10:55 AM 53.6 °F - 48.2 °F 82% 29.85 in 10.0 mi NNW 9.2 mph - N/A   Overcast
11:15 AM 53.6 °F - 48.2 °F 82% 29.85 in 10.0 mi NNW 10.4 mph - N/A   Overcast
11:35 AM 53.6 °F - 48.2 °F 82% 29.85 in 10.0 mi NNW 10.4 mph 17.3 mph N/A   Overcast
11:55 AM 53.6 °F - 48.2 °F 82% 29.85 in 10.0 mi NNW 13.8 mph 18.4 mph N/A   Overcast
12:15 PM 53.6 °F - 46.4 °F 77% 29.86 in 10.0 mi NW 11.5 mph - N/A   Overcast
12:35 PM 53.6 °F - 46.4 °F 77% 29.85 in 10.0 mi NNW 11.5 mph 16.1 mph N/A   Overcast
12:55 PM 53.6 °F - 46.4 °F 77% 29.84 in 10.0 mi NNW 11.5 mph 17.3 mph N/A   Overcast
1:15 PM 53.6 °F - 46.4 °F 77% 29.84 in 10.0 mi NNW 12.7 mph 17.3 mph N/A   Overcast
1:35 PM 53.6 °F - 46.4 °F 77% 29.84 in 10.0 mi NNW 10.4 mph 19.6 mph N/A   Overcast
1:55 PM 53.6 °F - 46.4 °F 77% 29.84 in 10.0 mi NNW 11.5 mph - N/A   Overcast
2:15 PM 53.6 °F - 46.4 °F 77% 29.84 in 10.0 mi NW 15.0 mph 21.9 mph N/A   Overcast
2:35 PM 53.6 °F - 46.4 °F 77% 29.84 in 10.0 mi NW 17.3 mph 20.7 mph N/A   Overcast
2:55 PM 53.6 °F - 46.4 °F 77% 29.84 in 10.0 mi NW 12.7 mph 18.4 mph N/A   Overcast
3:15 PM 53.6 °F - 46.4 °F 77% 29.85 in 10.0 mi NW 17.3 mph 23.0 mph N/A   Mostly Cloudy
3:35 PM 53.6 °F - 44.6 °F 72% 29.84 in 10.0 mi NNW 13.8 mph 20.7 mph N/A   Overcast
3:55 PM 53.6 °F - 44.6 °F 72% 29.84 in 10.0 mi NW 16.1 mph 21.9 mph N/A   Overcast
4:15 PM 53.6 °F - 44.6 °F 72% 29.84 in 10.0 mi NW 12.7 mph 18.4 mph N/A   Overcast
4:35 PM 53.6 °F - 44.6 °F 72% 29.84 in 10.0 mi NNW 10.4 mph 24.2 mph N/A   Overcast
4:55 PM 53.6 °F - 42.8 °F 67% 29.85 in 10.0 mi NNW 10.4 mph - N/A   Overcast
5:15 PM 53.6 °F - 42.8 °F 67% 29.85 in 10.0 mi NNW 11.5 mph 19.6 mph N/A   Overcast
5:35 PM 53.6 °F - 42.8 °F 67% 29.86 in 10.0 mi NNW 13.8 mph 19.6 mph N/A   Overcast
5:55 PM 53.6 °F - 41.0 °F 62% 29.86 in 10.0 mi NNW 8.1 mph - N/A   Overcast
6:15 PM 53.6 °F - 39.2 °F 58% 29.87 in 10.0 mi NNW 10.4 mph 20.7 mph N/A   Overcast
6:35 PM 51.8 °F - 39.2 °F 62% 29.88 in 10.0 mi NW 12.7 mph 21.9 mph N/A   Overcast
6:55 PM 51.8 °F - 39.2 °F 62% 29.89 in 10.0 mi NNW 13.8 mph 21.9 mph N/A   Overcast
7:15 PM 51.8 °F - 37.4 °F 58% 29.89 in 10.0 mi NNW 11.5 mph 28.8 mph N/A   Overcast
7:35 PM 50.0 °F - 39.2 °F 66% 29.90 in 10.0 mi NNW 11.5 mph 20.7 mph N/A   Scattered Clouds
7:55 PM 50.0 °F - 37.4 °F 62% 29.90 in 10.0 mi NNW 8.1 mph - N/A   Clear
8:15 PM 48.2 °F - 37.4 °F 66% 29.91 in 10.0 mi NNW 8.1 mph - N/A   Clear
8:35 PM 48.2 °F - 37.4 °F 66% 29.91 in 10.0 mi NNW 9.2 mph - N/A   Clear
8:55 PM 48.2 °F - 37.4 °F 66% 29.91 in 10.0 mi North 8.1 mph 16.1 mph N/A   Clear
9:15 PM 48.2 °F - 37.4 °F 66% 29.91 in 10.0 mi NNW 8.1 mph - N/A   Clear
9:35 PM 48.2 °F - 37.4 °F 66% 29.92 in 10.0 mi NNW 8.1 mph - N/A   Clear
9:55 PM 46.4 °F 41.1 °F 37.4 °F 71% 29.91 in 10.0 mi NNW 11.5 mph 16.1 mph N/A   Clear
10:15 PM 46.4 °F 42.4 °F 35.6 °F 66% 29.92 in 10.0 mi NNW 8.1 mph 16.1 mph N/A   Clear
10:35 PM 46.4 °F 41.9 °F 35.6 °F 66% 29.92 in 10.0 mi NNW 9.2 mph - N/A   Clear
10:55 PM 46.4 °F 41.9 °F 37.4 °F 71% 29.92 in 10.0 mi NNW 9.2 mph - N/A   Clear
11:15 PM 46.4 °F 41.5 °F 35.6 °F 66% 29.92 in 10.0 mi NNW 10.4 mph 16.1 mph N/A   Clear
11:35 PM 46.4 °F 42.4 °F 35.6 °F 66% 29.92 in 10.0 mi NNW 8.1 mph 17.3 mph N/A   Clear
11:55 PM 46.4 °F 41.5 °F 35.6 °F 66% 29.91 in 10.0 mi NNW 10.4 mph 18.4 mph N/A   Clear